User: anonymous   Login
Location: Unspecified
(0.0000°N, 0.0000°E)
Time: 23:55:15
(UTC+02:00)
Language:

NOAA 12 - Orbit

View from above orbital plane
View from above orbital plane
View from above satellite
View from above satellite

Ground track
Ground track

The orbit data is extracted from the following two-line orbital elements,

1 21263U 91032A   15147.53010406  .00000034  00000-0  32598-4 0  9994
2 21263 098.6309 174.7972 0012923 318.9598 158.9847 14.25760664249624
Epoch (UTC): 27 May 2015 12:43:20
Eccentricity: 0.0012923
inclination: 98.6309°
perigee height: 796 km
apogee height: 815 km
right ascension of ascending node: 174.7972°
argument of perigee: 318.9598°
revolutions per day: 14.25760664
mean anomaly at epoch: 158.9847°
orbit number at epoch: 24962

The dashed part of the orbit path shows where the satellite is in the earth's shadow,  

DLR